Ireland West Airport Knock, Ireland

11:04 AM IST on September 25, 2016 (GMT +0100)
Connaught

Weather History for EIKN - December, 2013

Change the Weather History Date:

Sunday, December 15, 2013

  Actual Average Record
Temperature  
Mean Temperature 40 °F -  
Max Temperature 45 °F - - ()
Min Temperature 35 °F - - ()
Degree Days  
Heating Degree Days 25    
Moisture  
Dew Point 41 °F    
Average Humidity 93    
Maximum Humidity 100    
Minimum Humidity 81    
Precipitation  
Precipitation 0.20 in - - ()
Sea Level Pressure  
Sea Level Pressure 29.57 in    
Wind  
Wind Speed 15 mph ()    
Max Wind Speed 29 mph    
Max Gust Speed 46 mph    
Visibility 5.2 miles    
Events Rain    
T = Trace of Precipitation, MM = Missing Value Source: Averaged Metar Reports

Daily Weather History Graph

Daily Weather History Graph

Search for Another Location

Airport or City:

Trip Planner

Search our weather history database for the weather conditions in past years. The results will help you decide how hot, cold, wet, or windy it might be!

Date:

Astronomy

Dec. 15, 2013 Rise Set
Actual Time 8:47 AM GMT 4:13 PM GMT
Civil Twilight 8:03 AM GMT 4:56 PM GMT
Nautical Twilight 7:17 AM GMT 5:42 PM GMT
Astronomical Twilight 6:34 AM GMT 6:26 PM GMT
Moon 3:19 PM GMT (12/15) 6:38 AM GMT (12/15)
Length of Visible Light 8h 52m
Length of Day
7h 25m
Waxing Gibbous, 97% of the Moon is Illuminated
Dec 15
Waxing Gibbous
Dec 17
Full
Dec 25
Last Quarter
Jan 1
New
Jan 8
First Quarter

Hourly Weather History & Observations

Time (GMT) Temp. Windchill Dew Point Humidity Pressure Visibility Wind Dir Wind Speed Gust Speed Precip Events Conditions
12:00 AM 40 °F - 37 °F 86% 29.84 in - WSW 15.7 mph - -  
6:00 AM 39 °F - 36 °F 83% 29.69 in - SSE 15.7 mph - -  
8:00 AM 42.8 °F 33.1 °F 37.4 °F 81% 29.59 in 6.2 mi South 25.3 mph 39.1 mph N/A   Mostly Cloudy
8:30 AM 42.8 °F 32.7 °F 39.2 °F 87% 29.56 in 6.2 mi South 27.6 mph 39.1 mph N/A   Mostly Cloudy
9:00 AM 44.6 °F 35.1 °F 39.2 °F 81% 29.56 in 6.2 mi South 27.6 mph 41.4 mph N/A   Mostly Cloudy
9:30 AM 44.6 °F 34.9 °F 39.2 °F 81% 29.53 in 6.2 mi South 28.8 mph 46.0 mph N/A   Mostly Cloudy
10:00 AM 44.6 °F 35.3 °F 41.0 °F 87% 29.53 in 6.2 mi South 26.5 mph 43.7 mph N/A   Mostly Cloudy
10:30 AM 46.4 °F 37.9 °F 41.0 °F 81% 29.53 in 5.0 mi South 25.3 mph 40.3 mph N/A Rain Light Rain
11:00 AM 44.6 °F 36.6 °F 42.8 °F 93% 29.56 in 1.9 mi SSW 19.6 mph - N/A   Light Small Hail Showers
11:30 AM 42.8 °F 36.2 °F 41.0 °F 93% 29.59 in 5.0 mi WSW 12.7 mph - N/A Rain Light Rain
12:00 PM 42 °F - 42 °F 98% 29.64 in 6 mi SW 11.2 mph - - Rain Rain
12:00 PM 42.8 °F 36.6 °F 41.0 °F 93% 29.59 in 6.2 mi SW 11.5 mph 23.0 mph N/A Rain Rain
12:30 PM 42.8 °F 39.3 °F 41.0 °F 93% 29.56 in 6.2 mi South 5.8 mph - N/A Rain Light Rain
1:00 PM 42.8 °F 38.0 °F 41.0 °F 93% 29.59 in 6.2 mi SSW 8.1 mph - N/A   Overcast
1:30 PM 42.8 °F 38.0 °F 42.8 °F 100% 29.59 in 6.2 mi South 8.1 mph - N/A   Overcast
2:00 PM 42.8 °F 38.0 °F 42.8 °F 100% 29.59 in 6.2 mi South 8.1 mph - N/A   Overcast
2:30 PM 42.8 °F 38.0 °F 42.8 °F 100% 29.56 in 6.2 mi South 8.1 mph - N/A   Overcast
3:30 PM 42.8 °F 38.6 °F 42.8 °F 100% 29.56 in 6.2 mi South 6.9 mph - N/A   Mostly Cloudy
4:00 PM 42.8 °F 37.5 °F 41.0 °F 93% 29.53 in 6.2 mi South 9.2 mph - N/A   Mostly Cloudy
4:30 PM 42.8 °F 37.5 °F 42.8 °F 100% 29.53 in 6.2 mi SSE 9.2 mph - N/A   Mostly Cloudy
5:00 PM 42.8 °F 37.5 °F 42.8 °F 100% 29.53 in 5.6 mi SSE 9.2 mph - N/A   Overcast
5:30 PM 42.8 °F 35.4 °F 42.8 °F 100% 29.53 in 3.1 mi South 15.0 mph - N/A   Overcast
6:00 PM 42 °F - 42 °F 99% 29.55 in 3 mi South 17.9 mph - -   Mist
6:00 PM 42.8 °F 34.8 °F 42.8 °F 100% 29.50 in 3.1 mi South 17.3 mph - N/A   Overcast
6:30 PM 42.8 °F 35.4 °F 42.8 °F 100% 29.50 in 2.5 mi South 15.0 mph - N/A   Overcast
7:00 PM 42.8 °F 35.1 °F 42.8 °F 100% 29.50 in 3.1 mi South 16.1 mph - N/A   Overcast